Location: Mohawk View
(42.7837°N, 73.7885°W)
Time: 08:15:35
(UTC+00:00)

SL-16 R/B - Pass Details

Date: 17 June 2021
Orbit: 985 x 1007 km, 99.5° (Epoch: 27 July)

Event Time Altitude Azimuth Distance (km) Brightness Sun altitude
Exits shadow 08:11:28 12° 234° (SW) 2,615 4.1 -10.0°
Maximum altitude 08:14:47 18° 269° (W) 2,254 4.0 -9.6°
Drops below altitude 10° 08:18:46 10° 310° (NW) 2,760 4.8 -9.1°
Sets 08:22:13 0° 329° (NNW) 3,711 5.7 -8.6°
